owner,sensor,date,latitude,longitude,vertical_datum,sea_water_practical_salinity,qcFlag 
ENP,ioos.station.NOAA.NDBC:DKKF1:1,2017-12-01T00:00:00Z,25.1800,-80.4900,1.5,23.44,1111122 
ENP,ioos.station.NOAA.NDBC:DKKF1:1,2017-12-01T01:00:00Z,25.1800,-80.4900,1.5,23.37,1111122 
ENP,ioos.station.NOAA.NDBC:DKKF1:1,2017-12-01T02:00:00Z,25.1800,-80.4900,1.5,23.4,11111222 
ENP,ioos.station.NOAA.NDBC:DKKF1:1,2017-12-01T03:00:00Z,25.1800,-80.4900,1.5,23.39,1111122 
ENP,ioos.station.NOAA.NDBC:DKKF1:1,2017-12-01T04:00:00Z,25.1800,-80.4900,1.5,23.35,1111122 
ENP,ioos.station.NOAA.NDBC:DKKF1:1,2017-12-01T05:00:00Z,25.1800,-80.4900,1.5,23.3,11111222 
ENP,ioos.station.NOAA.NDBC:DKKF1:1,2017-12-01T06:00:00Z,25.1800,-80.4900,1.5,23.18,1111122 
ENP,ioos.station.NOAA.NDBC:DKKF1:1,2017-12-01T07:00:00Z,25.1800,-80.4900,1.5,23.14,1111122 
ENP,ioos.station.NOAA.NDBC:DKKF1:1,2017-12-01T08:00:00Z,25.1800,-80.4900,1.5,23.14,1111122 
ENP,ioos.station.NOAA.NDBC:DKKF1:1,2017-12-01T09:00:00Z,25.1800,-80.4900,1.5,23.11,1111122 
ENP,ioos.station.NOAA.NDBC:DKKF1:1,2017-12-01T10:00:00Z,25.1800,-80.4900,1.5,23.1,11111222 
ENP,ioos.station.NOAA.NDBC:DKKF1:1,2017-12-01T11:00:00Z,25.1800,-80.4900,1.5,23.09,1111122 
ENP,ioos.station.NOAA.NDBC:DKKF1:1,2017-12-01T12:00:00Z,25.1800,-80.4900,1.5,23.04,1111122 
ENP,ioos.station.NOAA.NDBC:DKKF1:1,2017-12-01T13:00:00Z,25.1800,-80.4900,1.5,22.93,1111122 
ENP,ioos.station.NOAA.NDBC:DKKF1:1,2017-12-01T14:00:00Z,25.1800,-80.4900,1.5,22.81,1111122 
ENP,ioos.station.NOAA.NDBC:DKKF1:1,2017-12-01T15:00:00Z,25.1800,-80.4900,1.5,22.82,1111122 
ENP,ioos.station.NOAA.NDBC:DKKF1:1,2017-12-01T16:00:00Z,25.1800,-80.4900,1.5,22.78,1111122 
ENP,ioos.station.NOAA.NDBC:DKKF1:1,2017-12-01T17:00:00Z,25.1800,-80.4900,1.5,22.76,1111122 
ENP,ioos.station.NOAA.NDBC:DKKF1:1,2017-12-01T18:00:00Z,25.1800,-80.4900,1.5,22.77,1111122 
ENP,ioos.station.NOAA.NDBC:DKKF1:1,2017-12-01T19:00:00Z,25.1800,-80.4900,1.5,22.56,1111122 
ENP,ioos.station.NOAA.NDBC:DKKF1:1,2017-12-02T07:00:00Z,25.1800,-80.4900,1.5,22.56,1111122 
ENP,ioos.station.NOAA.NDBC:DKKF1:1,2017-12-02T08:00:00Z,25.1800,-80.4900,1.5,22.61,1111122 
ENP,ioos.station.NOAA.NDBC:DKKF1:1,2017-12-02T09:00:00Z,25.1800,-80.4900,1.5,22.59,1111122 
ENP,ioos.station.NOAA.NDBC:DKKF1:1,2017-12-02T10:00:00Z,25.1800,-80.4900,1.5,22.6,11111222 
ENP,ioos.station.NOAA.NDBC:DKKF1:1,2017-12-02T11:00:00Z,25.1800,-80.4900,1.5,22.6,1111122 
ENP,ioos.station.NOAA.NDBC:DKKF1:1,2017-12-02T12:00:00Z,25.1800,-80.4900,1.5,22.61,1111122 
ENP,ioos.station.NOAA.NDBC:DKKF1:1,2017-12-02T13:00:00Z,25.1800,-80.4900,1.5,22.63,1111122 
ENP,ioos.station.NOAA.NDBC:DKKF1:1,2017-12-02T14:00:00Z,25.1800,-80.4900,1.5,22.65,1111122 
ENP,ioos.station.NOAA.NDBC:DKKF1:1,2017-12-02T15:00:00Z,25.1800,-80.4900,1.5,22.68,1111122 
ENP,ioos.station.NOAA.NDBC:DKKF1:1,2017-12-02T16:00:00Z,25.1800,-80.4900,1.5,22.76,1111122 
ENP,ioos.station.NOAA.NDBC:DKKF1:1,2017-12-02T17:00:00Z,25.1800,-80.4900,1.5,22.85,1111122 
ENP,ioos.station.NOAA.NDBC:DKKF1:1,2017-12-02T18:00:00Z,25.1800,-80.4900,1.5,23.0,1111122 
ENP,ioos.station.NOAA.NDBC:DKKF1:1,2017-12-02T19:00:00Z,25.1800,-80.4900,1.5,23.15,1111122 
ENP,ioos.station.NOAA.NDBC:DKKF1:1,2017-12-02T20:00:00Z,25.1800,-80.4900,1.5,23.3,1111122 
ENP,ioos.station.NOAA.NDBC:DKKF1:1,2017-12-02T21:00:00Z,25.1800,-80.4900,1.5,23.3,1111122 
ENP,ioos.station.NOAA.NDBC:DKKF1:1,2017-12-02T23:00:00Z,25.1800,-80.4900,1.5,23.16,1111122 
ENP,ioos.station.NOAA.NDBC:DKKF1:1,2017-12-03T00:00:00Z,25.1800,-80.4900,1.5,23.07,1111122 
ENP,ioos.station.NOAA.NDBC:DKKF1:1,2017-12-03T01:00:00Z,25.1800,-80.4900,1.5,23.09,1111122 
ENP,ioos.station.NOAA.NDBC:DKKF1:1,2017-12-03T02:00:00Z,25.1800,-80.4900,1.5,23.1,11111222 
ENP,ioos.station.NOAA.NDBC:DKKF1:1,2017-12-03T03:00:00Z,25.1800,-80.4900,1.5,23.11,1111122 
ENP,ioos.station.NOAA.NDBC:DKKF1:1,2017-12-03T04:00:00Z,25.1800,-80.4900,1.5,23.12,1111122 
ENP,ioos.station.NOAA.NDBC:DKKF1:1,2017-12-03T05:00:00Z,25.1800,-80.4900,1.5,23.1,11111222 
ENP,ioos.station.NOAA.NDBC:DKKF1:1,2017-12-03T06:00:00Z,25.1800,-80.4900,1.5,23.11,1111122 
ENP,ioos.station.NOAA.NDBC:DKKF1:1,2017-12-03T07:00:00Z,25.1800,-80.4900,1.5,23.09,1111122 
ENP,ioos.station.NOAA.NDBC:DKKF1:1,2017-12-03T08:00:00Z,25.1800,-80.4900,1.5,23.04,1111122 
ENP,ioos.station.NOAA.NDBC:DKKF1:1,2017-12-03T09:00:00Z,25.1800,-80.4900,1.5,23.06,1111122 
ENP,ioos.station.NOAA.NDBC:DKKF1:1,2017-12-03T11:00:00Z,25.1800,-80.4900,1.5,23.1,11111222 
ENP,ioos.station.NOAA.NDBC:DKKF1:1,2017-12-03T12:00:00Z,25.1800,-80.4900,1.5,23.11,1111122 
ENP,ioos.station.NOAA.NDBC:DKKF1:1,2017-12-03T13:00:00Z,25.1800,-80.4900,1.5,23.11,1111122 
ENP,ioos.station.NOAA.NDBC:DKKF1:1,2017-12-03T14:00:00Z,25.1800,-80.4900,1.5,23.12,1111122 
ENP,ioos.station.NOAA.NDBC:DKKF1:1,2017-12-03T15:00:00Z,25.1800,-80.4900,1.5,23.14,1111122 
ENP,ioos.station.NOAA.NDBC:DKKF1:1,2017-12-03T16:00:00Z,25.1800,-80.4900,1.5,23.14,1111122 
ENP,ioos.station.NOAA.NDBC:DKKF1:1,2017-12-03T17:00:00Z,25.1800,-80.4900,1.5,23.14,1111122 
ENP,ioos.station.NOAA.NDBC:DKKF1:1,2017-12-03T18:00:00Z,25.1800,-80.4900,1.5,23.16,1111122 
ENP,ioos.station.NOAA.NDBC:DKKF1:1,2017-12-03T19:00:00Z,25.1800,-80.4900,1.5,23.16,1111122 
ENP,ioos.station.NOAA.NDBC:DKKF1:1,2017-12-03T20:00:00Z,25.1800,-80.4900,1.5,23.17,1111122 
ENP,ioos.station.NOAA.NDBC:DKKF1:1,2017-12-03T21:00:00Z,25.1800,-80.4900,1.5,23.23,1111122 
ENP,ioos.station.NOAA.NDBC:DKKF1:1,2017-12-03T22:00:00Z,25.1800,-80.4900,1.5,23.18,1111122 
ENP,ioos.station.NOAA.NDBC:DKKF1:1,2017-12-03T23:00:00Z,25.1800,-80.4900,1.5,23.2,11111222 
ENP,ioos.station.NOAA.NDBC:DKKF1:1,2017-12-04T00:00:00Z,25.1800,-80.4900,1.5,23.2,11111222 
ENP,ioos.station.NOAA.NDBC:DKKF1:1,2017-12-04T01:00:00Z,25.1800,-80.4900,1.5,23.2,1111122 
ENP,ioos.station.NOAA.NDBC:DKKF1:1,2017-12-04T02:00:00Z,25.1800,-80.4900,1.5,23.3,11111222 
ENP,ioos.station.NOAA.NDBC:DKKF1:1,2017-12-04T03:00:00Z,25.1800,-80.4900,1.5,23.24,1111122 
ENP,ioos.station.NOAA.NDBC:DKKF1:1,2017-12-04T04:00:00Z,25.1800,-80.4900,1.5,23.27,1111122 
ENP,ioos.station.NOAA.NDBC:DKKF1:1,2017-12-04T05:00:00Z,25.1800,-80.4900,1.5,23.3,11111222 
ENP,ioos.station.NOAA.NDBC:DKKF1:1,2017-12-04T06:00:00Z,25.1800,-80.4900,1.5,23.27,1111122 
ENP,ioos.station.NOAA.NDBC:DKKF1:1,2017-12-04T07:00:00Z,25.1800,-80.4900,1.5,23.28,1111122 
ENP,ioos.station.NOAA.NDBC:DKKF1:1,2017-12-04T08:00:00Z,25.1800,-80.4900,1.5,23.29,1111122 
ENP,ioos.station.NOAA.NDBC:DKKF1:1,2017-12-04T09:00:00Z,25.1800,-80.4900,1.5,23.23,1111122 
ENP,ioos.station.NOAA.NDBC:DKKF1:1,2017-12-04T10:00:00Z,25.1800,-80.4900,1.5,23.2,11111222 
ENP,ioos.station.NOAA.NDBC:DKKF1:1,2017-12-04T11:00:00Z,25.1800,-80.4900,1.5,23.18,1111122 
ENP,ioos.station.NOAA.NDBC:DKKF1:1,2017-12-04T12:00:00Z,25.1800,-80.4900,1.5,23.22,1111122 
ENP,ioos.station.NOAA.NDBC:DKKF1:1,2017-12-04T13:00:00Z,25.1800,-80.4900,1.5,23.18,1111122 
ENP,ioos.station.NOAA.NDBC:DKKF1:1,2017-12-04T14:00:00Z,25.1800,-80.4900,1.5,23.23,1111122 
ENP,ioos.station.NOAA.NDBC:DKKF1:1,2017-12-04T15:00:00Z,25.1800,-80.4900,1.5,23.23,1111122 
ENP,ioos.station.NOAA.NDBC:DKKF1:1,2017-12-04T16:00:00Z,25.1800,-80.4900,1.5,23.23,1111122 
ENP,ioos.station.NOAA.NDBC:DKKF1:1,2017-12-04T17:00:00Z,25.1800,-80.4900,1.5,23.27,1111122 
ENP,ioos.station.NOAA.NDBC:DKKF1:1,2017-12-04T18:00:00Z,25.1800,-80.4900,1.5,23.32,1111122 
ENP,ioos.station.NOAA.NDBC:DKKF1:1,2017-12-04T19:00:00Z,25.1800,-80.4900,1.5,23.39,1111122 
ENP,ioos.station.NOAA.NDBC:DKKF1:1,2017-12-04T20:00:00Z,25.1800,-80.4900,1.5,23.42,1111122 
ENP,ioos.station.NOAA.NDBC:DKKF1:1,2017-12-04T21:00:00Z,25.1800,-80.4900,1.5,23.48,1111122 
ENP,ioos.station.NOAA.NDBC:DKKF1:1,2017-12-04T22:00:00Z,25.1800,-80.4900,1.5,23.53,1111122 
ENP,ioos.station.NOAA.NDBC:DKKF1:1,2017-12-04T23:00:00Z,25.1800,-80.4900,1.5,23.57,1111122 
ENP,ioos.station.NOAA.NDBC:DKKF1:1,2017-12-05T11:00:00Z,25.1800,-80.4900,1.5,23.7,11111222 
ENP,ioos.station.NOAA.NDBC:DKKF1:1,2017-12-05T12:00:00Z,25.1800,-80.4900,1.5,23.67,1111122 
ENP,ioos.station.NOAA.NDBC:DKKF1:1,2017-12-05T13:00:00Z,25.1800,-80.4900,1.5,23.68,1111122 
ENP,ioos.station.NOAA.NDBC:DKKF1:1,2017-12-05T14:00:00Z,25.1800,-80.4900,1.5,23.67,1111122 
ENP,ioos.station.NOAA.NDBC:DKKF1:1,2017-12-05T15:00:00Z,25.1800,-80.4900,1.5,23.6,1111122 
ENP,ioos.station.NOAA.NDBC:DKKF1:1,2017-12-05T16:00:00Z,25.1800,-80.4900,1.5,23.53,1111122 
ENP,ioos.station.NOAA.NDBC:DKKF1:1,2017-12-05T17:00:00Z,25.1800,-80.4900,1.5,23.59,1111122 
ENP,ioos.station.NOAA.NDBC:DKKF1:1,2017-12-05T18:00:00Z,25.1800,-80.4900,1.5,23.61,1111122 
ENP,ioos.station.NOAA.NDBC:DKKF1:1,2017-12-05T19:00:00Z,25.1800,-80.4900,1.5,23.67,1111122 
ENP,ioos.station.NOAA.NDBC:DKKF1:1,2017-12-05T20:00:00Z,25.1800,-80.4900,1.5,23.66,1111122 
ENP,ioos.station.NOAA.NDBC:DKKF1:1,2017-12-05T21:00:00Z,25.1800,-80.4900,1.5,23.67,1111122 
ENP,ioos.station.NOAA.NDBC:DKKF1:1,2017-12-05T22:00:00Z,25.1800,-80.4900,1.5,23.65,1111122 
ENP,ioos.station.NOAA.NDBC:DKKF1:1,2017-12-05T23:00:00Z,25.1800,-80.4900,1.5,23.7,1111122 
ENP,ioos.station.NOAA.NDBC:DKKF1:1,2017-12-06T00:00:00Z,25.1800,-80.4900,1.5,23.68,1111122 
ENP,ioos.station.NOAA.NDBC:DKKF1:1,2017-12-06T01:00:00Z,25.1800,-80.4900,1.5,23.7,1111122 
ENP,ioos.station.NOAA.NDBC:DKKF1:1,2017-12-06T03:00:00Z,25.1800,-80.4900,1.5,23.7,11111222 
ENP,ioos.station.NOAA.NDBC:DKKF1:1,2017-12-06T04:00:00Z,25.1800,-80.4900,1.5,23.71,1111122 
ENP,ioos.station.NOAA.NDBC:DKKF1:1,2017-12-06T05:00:00Z,25.1800,-80.4900,1.5,23.7,11111222 
ENP,ioos.station.NOAA.NDBC:DKKF1:1,2017-12-06T06:00:00Z,25.1800,-80.4900,1.5,23.64,1111122 
ENP,ioos.station.NOAA.NDBC:DKKF1:1,2017-12-06T07:00:00Z,25.1800,-80.4900,1.5,23.67,1111122 
ENP,ioos.station.NOAA.NDBC:DKKF1:1,2017-12-06T08:00:00Z,25.1800,-80.4900,1.5,23.65,1111122 
ENP,ioos.station.NOAA.NDBC:DKKF1:1,2017-12-06T09:00:00Z,25.1800,-80.4900,1.5,23.64,1111122 
ENP,ioos.station.NOAA.NDBC:DKKF1:1,2017-12-06T10:00:00Z,25.1800,-80.4900,1.5,23.6,11111222 
ENP,ioos.station.NOAA.NDBC:DKKF1:1,2017-12-06T11:00:00Z,25.1800,-80.4900,1.5,23.7,11111222 
ENP,ioos.station.NOAA.NDBC:DKKF1:1,2017-12-06T12:00:00Z,25.1800,-80.4900,1.5,23.67,1111122 
ENP,ioos.station.NOAA.NDBC:DKKF1:1,2017-12-06T13:00:00Z,25.1800,-80.4900,1.5,23.64,1111122 
ENP,ioos.station.NOAA.NDBC:DKKF1:1,2017-12-06T14:00:00Z,25.1800,-80.4900,1.5,23.62,1111122 
ENP,ioos.station.NOAA.NDBC:DKKF1:1,2017-12-06T15:00:00Z,25.1800,-80.4900,1.5,23.62,1111122 
ENP,ioos.station.NOAA.NDBC:DKKF1:1,2017-12-06T16:00:00Z,25.1800,-80.4900,1.5,23.64,1111122 
ENP,ioos.station.NOAA.NDBC:DKKF1:1,2017-12-06T17:00:00Z,25.1800,-80.4900,1.5,23.61,1111122 
ENP,ioos.station.NOAA.NDBC:DKKF1:1,2017-12-06T18:00:00Z,25.1800,-80.4900,1.5,23.64,1111122 
ENP,ioos.station.NOAA.NDBC:DKKF1:1,2017-12-06T19:00:00Z,25.1800,-80.4900,1.5,23.62,1111122 
ENP,ioos.station.NOAA.NDBC:DKKF1:1,2017-12-06T20:00:00Z,25.1800,-80.4900,1.5,23.6,1111122 
ENP,ioos.station.NOAA.NDBC:DKKF1:1,2017-12-06T21:00:00Z,25.1800,-80.4900,1.5,23.64,1111122 
ENP,ioos.station.NOAA.NDBC:DKKF1:1,2017-12-06T22:00:00Z,25.1800,-80.4900,1.5,23.63,1111122 
ENP,ioos.station.NOAA.NDBC:DKKF1:1,2017-12-06T23:00:00Z,25.1800,-80.4900,1.5,23.63,1111122 
ENP,ioos.station.NOAA.NDBC:DKKF1:1,2017-12-07T00:00:00Z,25.1800,-80.4900,1.5,23.65,1111122 
ENP,ioos.station.NOAA.NDBC:DKKF1:1,2017-12-07T01:00:00Z,25.1800,-80.4900,1.5,23.63,1111122 
ENP,ioos.station.NOAA.NDBC:DKKF1:1,2017-12-07T02:00:00Z,25.1800,-80.4900,1.5,23.6,11111222 
ENP,ioos.station.NOAA.NDBC:DKKF1:1,2017-12-07T03:00:00Z,25.1800,-80.4900,1.5,23.63,1111122 
ENP,ioos.station.NOAA.NDBC:DKKF1:1,2017-12-07T04:00:00Z,25.1800,-80.4900,1.5,23.64,1111122 
ENP,ioos.station.NOAA.NDBC:DKKF1:1,2017-12-07T05:00:00Z,25.1800,-80.4900,1.5,23.6,11111222 
ENP,ioos.station.NOAA.NDBC:DKKF1:1,2017-12-07T06:00:00Z,25.1800,-80.4900,1.5,23.64,1111122 
ENP,ioos.station.NOAA.NDBC:DKKF1:1,2017-12-07T07:00:00Z,25.1800,-80.4900,1.5,23.64,1111122 
ENP,ioos.station.NOAA.NDBC:DKKF1:1,2017-12-07T08:00:00Z,25.1800,-80.4900,1.5,23.68,1111122 
ENP,ioos.station.NOAA.NDBC:DKKF1:1,2017-12-07T09:00:00Z,25.1800,-80.4900,1.5,23.64,1111122 
ENP,ioos.station.NOAA.NDBC:DKKF1:1,2017-12-07T11:00:00Z,25.1800,-80.4900,1.5,23.7,11111222 
ENP,ioos.station.NOAA.NDBC:DKKF1:1,2017-12-07T12:00:00Z,25.1800,-80.4900,1.5,23.65,1111122 
ENP,ioos.station.NOAA.NDBC:DKKF1:1,2017-12-07T13:00:00Z,25.1800,-80.4900,1.5,23.68,1111122 
ENP,ioos.station.NOAA.NDBC:DKKF1:1,2017-12-07T14:00:00Z,25.1800,-80.4900,1.5,23.68,1111122 
ENP,ioos.station.NOAA.NDBC:DKKF1:1,2017-12-07T15:00:00Z,25.1800,-80.4900,1.5,23.66,1111122 
ENP,ioos.station.NOAA.NDBC:DKKF1:1,2017-12-07T16:00:00Z,25.1800,-80.4900,1.5,23.64,1111122 
ENP,ioos.station.NOAA.NDBC:DKKF1:1,2017-12-07T17:00:00Z,25.1800,-80.4900,1.5,23.65,1111122 
ENP,ioos.station.NOAA.NDBC:DKKF1:1,2017-12-07T18:00:00Z,25.1800,-80.4900,1.5,23.71,1111122 
ENP,ioos.station.NOAA.NDBC:DKKF1:1,2017-12-07T19:00:00Z,25.1800,-80.4900,1.5,23.62,1111122 
ENP,ioos.station.NOAA.NDBC:DKKF1:1,2017-12-07T20:00:00Z,25.1800,-80.4900,1.5,23.6,11111222 
ENP,ioos.station.NOAA.NDBC:DKKF1:1,2017-12-07T21:00:00Z,25.1800,-80.4900,1.5,23.6,11111222 
ENP,ioos.station.NOAA.NDBC:DKKF1:1,2017-12-07T22:00:00Z,25.1800,-80.4900,1.5,23.51,1111122 
ENP,ioos.station.NOAA.NDBC:DKKF1:1,2017-12-07T23:00:00Z,25.1800,-80.4900,1.5,23.41,1111122 
ENP,ioos.station.NOAA.NDBC:DKKF1:1,2017-12-08T00:00:00Z,25.1800,-80.4900,1.5,23.27,1111122 
ENP,ioos.station.NOAA.NDBC:DKKF1:1,2017-12-08T01:00:00Z,25.1800,-80.4900,1.5,23.15,1111122 
ENP,ioos.station.NOAA.NDBC:DKKF1:1,2017-12-08T02:00:00Z,25.1800,-80.4900,1.5,23.1,11111222 
ENP,ioos.station.NOAA.NDBC:DKKF1:1,2017-12-08T03:00:00Z,25.1800,-80.4900,1.5,23.07,1111122 
ENP,ioos.station.NOAA.NDBC:DKKF1:1,2017-12-08T04:00:00Z,25.1800,-80.4900,1.5,23.07,1111122 
ENP,ioos.station.NOAA.NDBC:DKKF1:1,2017-12-08T05:00:00Z,25.1800,-80.4900,1.5,23.1,11111222 
ENP,ioos.station.NOAA.NDBC:DKKF1:1,2017-12-08T06:00:00Z,25.1800,-80.4900,1.5,23.12,1111122 
ENP,ioos.station.NOAA.NDBC:DKKF1:1,2017-12-08T07:00:00Z,25.1800,-80.4900,1.5,23.09,1111122 
ENP,ioos.station.NOAA.NDBC:DKKF1:1,2017-12-08T08:00:00Z,25.1800,-80.4900,1.5,23.11,1111122 
ENP,ioos.station.NOAA.NDBC:DKKF1:1,2017-12-08T09:00:00Z,25.1800,-80.4900,1.5,23.15,1111122 
ENP,ioos.station.NOAA.NDBC:DKKF1:1,2017-12-08T10:00:00Z,25.1800,-80.4900,1.5,23.2,11111222 
ENP,ioos.station.NOAA.NDBC:DKKF1:1,2017-12-08T11:00:00Z,25.1800,-80.4900,1.5,23.18,1111122 
ENP,ioos.station.NOAA.NDBC:DKKF1:1,2017-12-08T12:00:00Z,25.1800,-80.4900,1.5,23.18,1111122 
ENP,ioos.station.NOAA.NDBC:DKKF1:1,2017-12-08T13:00:00Z,25.1800,-80.4900,1.5,23.2,1111122 
ENP,ioos.station.NOAA.NDBC:DKKF1:1,2017-12-08T14:00:00Z,25.1800,-80.4900,1.5,23.23,1111122 
ENP,ioos.station.NOAA.NDBC:DKKF1:1,2017-12-08T15:00:00Z,25.1800,-80.4900,1.5,23.3,11111222 
ENP,ioos.station.NOAA.NDBC:DKKF1:1,2017-12-08T16:00:00Z,25.1800,-80.4900,1.5,23.24,1111122 
ENP,ioos.station.NOAA.NDBC:DKKF1:1,2017-12-08T17:00:00Z,25.1800,-80.4900,1.5,23.22,1111122 
ENP,ioos.station.NOAA.NDBC:DKKF1:1,2017-12-08T18:00:00Z,25.1800,-80.4900,1.5,23.23,1111122 
ENP,ioos.station.NOAA.NDBC:DKKF1:1,2017-12-08T19:00:00Z,25.1800,-80.4900,1.5,23.23,1111122 
ENP,ioos.station.NOAA.NDBC:DKKF1:1,2017-12-08T20:00:00Z,25.1800,-80.4900,1.5,23.18,1111122 
ENP,ioos.station.NOAA.NDBC:DKKF1:1,2017-12-08T21:00:00Z,25.1800,-80.4900,1.5,23.2,1111122 
ENP,ioos.station.NOAA.NDBC:DKKF1:1,2017-12-08T22:00:00Z,25.1800,-80.4900,1.5,23.27,1111122 
ENP,ioos.station.NOAA.NDBC:DKKF1:1,2017-12-08T23:00:00Z,25.1800,-80.4900,1.5,23.23,1111122 
ENP,ioos.station.NOAA.NDBC:DKKF1:1,2017-12-09T00:00:00Z,25.1800,-80.4900,1.5,23.21,1111122 
ENP,ioos.station.NOAA.NDBC:DKKF1:1,2017-12-09T01:00:00Z,25.1800,-80.4900,1.5,23.21,1111122 
ENP,ioos.station.NOAA.NDBC:DKKF1:1,2017-12-09T03:00:00Z,25.1800,-80.4900,1.5,23.2,11111222 
ENP,ioos.station.NOAA.NDBC:DKKF1:1,2017-12-09T04:00:00Z,25.1800,-80.4900,1.5,23.16,1111122 
ENP,ioos.station.NOAA.NDBC:DKKF1:1,2017-12-09T05:00:00Z,25.1800,-80.4900,1.5,23.2,11111222 
ENP,ioos.station.NOAA.NDBC:DKKF1:1,2017-12-09T06:00:00Z,25.1800,-80.4900,1.5,23.2,1111122 
ENP,ioos.station.NOAA.NDBC:DKKF1:1,2017-12-09T07:00:00Z,25.1800,-80.4900,1.5,23.23,1111122 
ENP,ioos.station.NOAA.NDBC:DKKF1:1,2017-12-09T08:00:00Z,25.1800,-80.4900,1.5,23.16,1111122 
ENP,ioos.station.NOAA.NDBC:DKKF1:1,2017-12-09T09:00:00Z,25.1800,-80.4900,1.5,23.16,1111122 
ENP,ioos.station.NOAA.NDBC:DKKF1:1,2017-12-09T10:00:00Z,25.1800,-80.4900,1.5,23.2,11111222 
ENP,ioos.station.NOAA.NDBC:DKKF1:1,2017-12-09T11:00:00Z,25.1800,-80.4900,1.5,23.18,1111122 
ENP,ioos.station.NOAA.NDBC:DKKF1:1,2017-12-09T12:00:00Z,25.1800,-80.4900,1.5,23.21,1111122 
ENP,ioos.station.NOAA.NDBC:DKKF1:1,2017-12-09T13:00:00Z,25.1800,-80.4900,1.5,23.11,1111122 
ENP,ioos.station.NOAA.NDBC:DKKF1:1,2017-12-09T14:00:00Z,25.1800,-80.4900,1.5,23.12,1111122 
ENP,ioos.station.NOAA.NDBC:DKKF1:1,2017-12-09T15:00:00Z,25.1800,-80.4900,1.5,22.95,1111122 
ENP,ioos.station.NOAA.NDBC:DKKF1:1,2017-12-09T16:00:00Z,25.1800,-80.4900,1.5,22.77,1111122 
ENP,ioos.station.NOAA.NDBC:DKKF1:1,2017-12-09T17:00:00Z,25.1800,-80.4900,1.5,22.71,1111122 
ENP,ioos.station.NOAA.NDBC:DKKF1:1,2017-12-09T18:00:00Z,25.1800,-80.4900,1.5,22.66,1111122 
ENP,ioos.station.NOAA.NDBC:DKKF1:1,2017-12-09T19:00:00Z,25.1800,-80.4900,1.5,22.65,1111122 
ENP,ioos.station.NOAA.NDBC:DKKF1:1,2017-12-09T20:00:00Z,25.1800,-80.4900,1.5,22.68,1111122 
ENP,ioos.station.NOAA.NDBC:DKKF1:1,2017-12-09T21:00:00Z,25.1800,-80.4900,1.5,22.83,1111122 
ENP,ioos.station.NOAA.NDBC:DKKF1:1,2017-12-09T22:00:00Z,25.1800,-80.4900,1.5,22.77,1111122 
ENP,ioos.station.NOAA.NDBC:DKKF1:1,2017-12-09T23:00:00Z,25.1800,-80.4900,1.5,22.77,1111122 
ENP,ioos.station.NOAA.NDBC:DKKF1:1,2017-12-10T00:00:00Z,25.1800,-80.4900,1.5,22.97,1111122 
ENP,ioos.station.NOAA.NDBC:DKKF1:1,2017-12-10T01:00:00Z,25.1800,-80.4900,1.5,22.95,1111122 
ENP,ioos.station.NOAA.NDBC:DKKF1:1,2017-12-10T02:00:00Z,25.1800,-80.4900,1.5,23.1,11111222 
ENP,ioos.station.NOAA.NDBC:DKKF1:1,2017-12-10T03:00:00Z,25.1800,-80.4900,1.5,23.02,1111122 
ENP,ioos.station.NOAA.NDBC:DKKF1:1,2017-12-10T04:00:00Z,25.1800,-80.4900,1.5,23.13,1111122 
ENP,ioos.station.NOAA.NDBC:DKKF1:1,2017-12-10T05:00:00Z,25.1800,-80.4900,1.5,23.0,11111222 
ENP,ioos.station.NOAA.NDBC:DKKF1:1,2017-12-10T06:00:00Z,25.1800,-80.4900,1.5,23.01,1111122 
ENP,ioos.station.NOAA.NDBC:DKKF1:1,2017-12-10T07:00:00Z,25.1800,-80.4900,1.5,23.0,1111122 
ENP,ioos.station.NOAA.NDBC:DKKF1:1,2017-12-10T08:00:00Z,25.1800,-80.4900,1.5,23.0,1111122 
ENP,ioos.station.NOAA.NDBC:DKKF1:1,2017-12-10T09:00:00Z,25.1800,-80.4900,1.5,22.93,1111122 
ENP,ioos.station.NOAA.NDBC:DKKF1:1,2017-12-10T11:00:00Z,25.1800,-80.4900,1.5,23.0,11111222 
ENP,ioos.station.NOAA.NDBC:DKKF1:1,2017-12-10T12:00:00Z,25.1800,-80.4900,1.5,22.91,1111122 
ENP,ioos.station.NOAA.NDBC:DKKF1:1,2017-12-10T13:00:00Z,25.1800,-80.4900,1.5,23.05,1111122 
ENP,ioos.station.NOAA.NDBC:DKKF1:1,2017-12-10T14:00:00Z,25.1800,-80.4900,1.5,23.13,1111122 
ENP,ioos.station.NOAA.NDBC:DKKF1:1,2017-12-10T15:00:00Z,25.1800,-80.4900,1.5,23.18,1111122 
ENP,ioos.station.NOAA.NDBC:DKKF1:1,2017-12-10T16:00:00Z,25.1800,-80.4900,1.5,23.34,1111122 
ENP,ioos.station.NOAA.NDBC:DKKF1:1,2017-12-10T17:00:00Z,25.1800,-80.4900,1.5,23.34,1111122 
ENP,ioos.station.NOAA.NDBC:DKKF1:1,2017-12-10T18:00:00Z,25.1800,-80.4900,1.5,23.29,1111122 
ENP,ioos.station.NOAA.NDBC:DKKF1:1,2017-12-10T19:00:00Z,25.1800,-80.4900,1.5,23.27,1111122 
ENP,ioos.station.NOAA.NDBC:DKKF1:1,2017-12-10T20:00:00Z,25.1800,-80.4900,1.5,23.26,1111122 
ENP,ioos.station.NOAA.NDBC:DKKF1:1,2017-12-10T21:00:00Z,25.1800,-80.4900,1.5,23.29,1111122 
ENP,ioos.station.NOAA.NDBC:DKKF1:1,2017-12-10T22:00:00Z,25.1800,-80.4900,1.5,23.28,1111122 
ENP,ioos.station.NOAA.NDBC:DKKF1:1,2017-12-10T23:00:00Z,25.1800,-80.4900,1.5,23.34,1111122 
ENP,ioos.station.NOAA.NDBC:DKKF1:1,2017-12-11T00:00:00Z,25.1800,-80.4900,1.5,23.34,1111122 
ENP,ioos.station.NOAA.NDBC:DKKF1:1,2017-12-11T01:00:00Z,25.1800,-80.4900,1.5,23.34,1111122 
ENP,ioos.station.NOAA.NDBC:DKKF1:1,2017-12-11T02:00:00Z,25.1800,-80.4900,1.5,23.4,11111222 
ENP,ioos.station.NOAA.NDBC:DKKF1:1,2017-12-11T03:00:00Z,25.1800,-80.4900,1.5,23.34,1111122 
ENP,ioos.station.NOAA.NDBC:DKKF1:1,2017-12-11T04:00:00Z,25.1800,-80.4900,1.5,23.34,1111122 
ENP,ioos.station.NOAA.NDBC:DKKF1:1,2017-12-11T05:00:00Z,25.1800,-80.4900,1.5,23.3,11111222 
ENP,ioos.station.NOAA.NDBC:DKKF1:1,2017-12-11T06:00:00Z,25.1800,-80.4900,1.5,23.33,1111122 
ENP,ioos.station.NOAA.NDBC:DKKF1:1,2017-12-11T07:00:00Z,25.1800,-80.4900,1.5,23.33,1111122 
ENP,ioos.station.NOAA.NDBC:DKKF1:1,2017-12-11T08:00:00Z,25.1800,-80.4900,1.5,23.32,1111122 
ENP,ioos.station.NOAA.NDBC:DKKF1:1,2017-12-11T09:00:00Z,25.1800,-80.4900,1.5,23.34,1111122 
ENP,ioos.station.NOAA.NDBC:DKKF1:1,2017-12-11T10:00:00Z,25.1800,-80.4900,1.5,23.4,11111222 
ENP,ioos.station.NOAA.NDBC:DKKF1:1,2017-12-11T11:00:00Z,25.1800,-80.4900,1.5,23.38,1111122 
ENP,ioos.station.NOAA.NDBC:DKKF1:1,2017-12-11T12:00:00Z,25.1800,-80.4900,1.5,23.32,1111122 
ENP,ioos.station.NOAA.NDBC:DKKF1:1,2017-12-11T13:00:00Z,25.1800,-80.4900,1.5,23.34,1111122 
ENP,ioos.station.NOAA.NDBC:DKKF1:1,2017-12-11T14:00:00Z,25.1800,-80.4900,1.5,23.35,1111122 
ENP,ioos.station.NOAA.NDBC:DKKF1:1,2017-12-11T15:00:00Z,25.1800,-80.4900,1.5,23.36,1111122 
ENP,ioos.station.NOAA.NDBC:DKKF1:1,2017-12-11T16:00:00Z,25.1800,-80.4900,1.5,23.35,1111122 
ENP,ioos.station.NOAA.NDBC:DKKF1:1,2017-12-11T17:00:00Z,25.1800,-80.4900,1.5,23.37,1111122 
ENP,ioos.station.NOAA.NDBC:DKKF1:1,2017-12-11T18:00:00Z,25.1800,-80.4900,1.5,23.37,1111122 
ENP,ioos.station.NOAA.NDBC:DKKF1:1,2017-12-11T19:00:00Z,25.1800,-80.4900,1.5,23.39,1111122 
ENP,ioos.station.NOAA.NDBC:DKKF1:1,2017-12-11T20:00:00Z,25.1800,-80.4900,1.5,23.36,1111122 
ENP,ioos.station.NOAA.NDBC:DKKF1:1,2017-12-11T21:00:00Z,25.1800,-80.4900,1.5,23.42,1111122 
ENP,ioos.station.NOAA.NDBC:DKKF1:1,2017-12-11T22:00:00Z,25.1800,-80.4900,1.5,23.42,1111122 
ENP,ioos.station.NOAA.NDBC:DKKF1:1,2017-12-11T23:00:00Z,25.1800,-80.4900,1.5,23.46,1111122 
ENP,ioos.station.NOAA.NDBC:DKKF1:1,2017-12-12T00:00:00Z,25.1800,-80.4900,1.5,23.38,1111122 
ENP,ioos.station.NOAA.NDBC:DKKF1:1,2017-12-12T01:00:00Z,25.1800,-80.4900,1.5,23.43,1111122 
ENP,ioos.station.NOAA.NDBC:DKKF1:1,2017-12-12T02:00:00Z,25.1800,-80.4900,1.5,23.4,11111222 
ENP,ioos.station.NOAA.NDBC:DKKF1:1,2017-12-12T03:00:00Z,25.1800,-80.4900,1.5,23.5,11111222 
ENP,ioos.station.NOAA.NDBC:DKKF1:1,2017-12-12T04:00:00Z,25.1800,-80.4900,1.5,23.44,1111122 
ENP,ioos.station.NOAA.NDBC:DKKF1:1,2017-12-12T05:00:00Z,25.1800,-80.4900,1.5,23.5,11111222 
ENP,ioos.station.NOAA.NDBC:DKKF1:1,2017-12-12T06:00:00Z,25.1800,-80.4900,1.5,23.46,1111122 
ENP,ioos.station.NOAA.NDBC:DKKF1:1,2017-12-12T07:00:00Z,25.1800,-80.4900,1.5,23.46,1111122 
ENP,ioos.station.NOAA.NDBC:DKKF1:1,2017-12-12T08:00:00Z,25.1800,-80.4900,1.5,23.44,1111122 
ENP,ioos.station.NOAA.NDBC:DKKF1:1,2017-12-12T09:00:00Z,25.1800,-80.4900,1.5,23.46,1111122 
ENP,ioos.station.NOAA.NDBC:DKKF1:1,2017-12-12T11:00:00Z,25.1800,-80.4900,1.5,23.5,11111222 
ENP,ioos.station.NOAA.NDBC:DKKF1:1,2017-12-12T12:00:00Z,25.1800,-80.4900,1.5,23.47,1111122 
ENP,ioos.station.NOAA.NDBC:DKKF1:1,2017-12-12T13:00:00Z,25.1800,-80.4900,1.5,23.49,1111122 
ENP,ioos.station.NOAA.NDBC:DKKF1:1,2017-12-12T14:00:00Z,25.1800,-80.4900,1.5,23.47,1111122 
ENP,ioos.station.NOAA.NDBC:DKKF1:1,2017-12-12T15:00:00Z,25.1800,-80.4900,1.5,23.49,1111122 
ENP,ioos.station.NOAA.NDBC:DKKF1:1,2017-12-12T16:00:00Z,25.1800,-80.4900,1.5,23.51,1111122 
ENP,ioos.station.NOAA.NDBC:DKKF1:1,2017-12-12T17:00:00Z,25.1800,-80.4900,1.5,23.51,1111122 
ENP,ioos.station.NOAA.NDBC:DKKF1:1,2017-12-12T18:00:00Z,25.1800,-80.4900,1.5,23.54,1111122 
ENP,ioos.station.NOAA.NDBC:DKKF1:1,2017-12-12T19:00:00Z,25.1800,-80.4900,1.5,23.52,1111122 
ENP,ioos.station.NOAA.NDBC:DKKF1:1,2017-12-12T20:00:00Z,25.1800,-80.4900,1.5,23.51,1111122 
ENP,ioos.station.NOAA.NDBC:DKKF1:1,2017-12-12T21:00:00Z,25.1800,-80.4900,1.5,21.65,1111122 
ENP,ioos.station.NOAA.NDBC:DKKF1:1,2017-12-12T22:00:00Z,25.1800,-80.4900,1.5,21.0,11111222 
ENP,ioos.station.NOAA.NDBC:DKKF1:1,2017-12-12T23:00:00Z,25.1800,-80.4900,1.5,21.5,11111222 
ENP,ioos.station.NOAA.NDBC:DKKF1:1,2017-12-13T00:00:00Z,25.1800,-80.4900,1.5,21.6,11111222 